User: anonymous   Login
Location: Unspecified
(0.0000°N, 0.0000°E)
Time: 01:00:22
(UTC+01:00)
Language:

Ariane 42L R/B - Orbit

View from above orbital plane
View from above orbital plane
View from above satellite
View from above satellite

Ground track
Ground track

The orbit data is extracted from the following two-line orbital elements,

1 26299U 00020B   15063.51785925  .00010242  00000-0  18088-2 0  9993
2 26299 007.5166 297.6331 6064497 264.0221 017.2454 03.95281320185087
Epoch (UTC): 04 March 2015 12:25:43
Eccentricity: 0.6064497
inclination: 7.5166°
perigee height: 271 km
apogee height: 20765 km
right ascension of ascending node: 297.6331°
argument of perigee: 264.0221°
revolutions per day: 3.95281320
mean anomaly at epoch: 17.2454°
orbit number at epoch: 18508

The dashed part of the orbit path shows where the satellite is in the earth's shadow,  

DLR